TimeCDT,TemperatureF,Dew PointF,Humidity,Sea Level PressureIn,VisibilityMPH,Wind Direction,Wind SpeedMPH,Gust SpeedMPH,PrecipitationIn,Events,Conditions,WindDirDegrees,DateUTC
12:15 AM,24.8,15.8,69,30.07,10.0,NNW,13.8,-,N/A,,Scattered Clouds,340,2014-04-14 05:15:00
12:35 AM,24.8,14.0,64,30.08,10.0,NNW,15.0,21.9,N/A,,Mostly Cloudy,340,2014-04-14 05:35:00
12:53 AM,24.8,14.0,64,30.08,10.0,NNW,15.0,-,N/A,,Scattered Clouds,340,2014-04-14 05:53:00
1:15 AM,24.8,14.0,64,30.09,10.0,North,15.0,-,N/A,,Clear,350,2014-04-14 06:15:00
1:35 AM,24.8,14.0,64,30.09,10.0,North,12.7,-,N/A,,Clear,350,2014-04-14 06:35:00
1:53 AM,23.0,12.2,63,30.09,10.0,North,16.1,21.9,N/A,,Clear,350,2014-04-14 06:53:00
2:15 AM,23.0,12.2,63,30.08,10.0,North,16.1,25.3,N/A,,Clear,360,2014-04-14 07:15:00
2:35 AM,21.2,12.2,68,30.08,10.0,NNW,12.7,17.3,N/A,,Clear,340,2014-04-14 07:35:00
2:53 AM,21.2,12.2,68,30.07,10.0,NNW,13.8,-,N/A,,Clear,340,2014-04-14 07:53:00
3:15 AM,21.2,12.2,68,30.07,10.0,North,17.3,23.0,N/A,,Clear,350,2014-04-14 08:15:00
3:35 AM,21.2,12.2,68,30.07,10.0,North,16.1,20.7,N/A,,Clear,350,2014-04-14 08:35:00
4:14 AM,19.4,10.4,68,30.07,10.0,NNW,15.0,-,N/A,,Clear,340,2014-04-14 09:14:00
4:34 AM,19.4,10.4,68,30.07,10.0,North,10.4,16.1,N/A,,Clear,350,2014-04-14 09:34:00
4:50 AM,19.4,10.4,68,30.07,10.0,NNW,12.7,-,N/A,,Clear,340,2014-04-14 09:50:00
5:15 AM,19.4,8.6,63,30.07,10.0,NNW,13.8,18.4,N/A,,Clear,340,2014-04-14 10:15:00
5:35 AM,19.4,8.6,63,30.07,10.0,NNW,12.7,-,N/A,,Clear,340,2014-04-14 10:35:00
5:53 AM,19.4,8.6,63,30.08,10.0,NNW,10.4,-,N/A,,Clear,340,2014-04-14 10:53:00
6:15 AM,17.6,8.6,68,30.09,10.0,NNW,10.4,-,N/A,,Clear,340,2014-04-14 11:15:00
6:35 AM,17.6,8.6,68,30.09,10.0,NNW,10.4,-,N/A,,Clear,340,2014-04-14 11:35:00
7:15 AM,19.4,8.6,63,30.10,10.0,NNW,8.1,-,N/A,,Clear,330,2014-04-14 12:15:00
7:34 AM,19.4,8.6,63,30.11,10.0,NNW,10.4,16.1,N/A,,Clear,330,2014-04-14 12:34:00
7:53 AM,19.4,8.6,63,30.12,10.0,NNW,10.4,-,N/A,,Clear,340,2014-04-14 12:53:00
8:15 AM,19.4,8.6,63,30.13,10.0,NNW,10.4,-,N/A,,Clear,330,2014-04-14 13:15:00
8:35 AM,21.2,8.6,58,30.13,10.0,NNW,12.7,17.3,N/A,,Clear,340,2014-04-14 13:35:00
8:52 AM,21.2,6.8,54,30.13,10.0,NNW,15.0,19.6,N/A,,Clear,340,2014-04-14 13:52:00
9:14 AM,23.0,6.8,50,30.13,10.0,NNW,15.0,21.9,N/A,,Clear,330,2014-04-14 14:14:00
9:35 AM,24.8,5.0,43,30.13,10.0,NNW,18.4,23.0,N/A,,Clear,340,2014-04-14 14:35:00
9:52 AM,24.8,6.8,46,30.12,10.0,NNW,17.3,23.0,N/A,,Clear,340,2014-04-14 14:52:00
10:15 AM,24.8,5.0,43,30.12,10.0,North,17.3,25.3,N/A,,Clear,360,2014-04-14 15:15:00
10:35 AM,26.6,6.8,43,30.12,10.0,North,13.8,24.2,N/A,,Clear,360,2014-04-14 15:35:00
10:52 AM,26.6,6.8,43,30.12,10.0,NNW,12.7,20.7,N/A,,Clear,340,2014-04-14 15:52:00
11:14 AM,26.6,6.8,43,30.12,10.0,North,16.1,24.2,N/A,,Scattered Clouds,350,2014-04-14 16:14:00
11:35 AM,26.6,6.8,43,30.12,10.0,NNW,18.4,26.5,N/A,,Scattered Clouds,330,2014-04-14 16:35:00
11:53 AM,28.4,8.6,43,30.11,10.0,NNW,18.4,27.6,N/A,,Scattered Clouds,330,2014-04-14 16:53:00
12:14 PM,26.6,6.8,43,30.11,10.0,NNW,20.7,27.6,N/A,,Scattered Clouds,340,2014-04-14 17:14:00
12:35 PM,26.6,6.8,43,30.11,10.0,NNW,17.3,23.0,N/A,,Scattered Clouds,340,2014-04-14 17:35:00
1:15 PM,28.4,8.6,43,30.11,10.0,NW,19.6,24.2,N/A,,Scattered Clouds,320,2014-04-14 18:15:00
1:35 PM,26.6,8.6,47,30.11,10.0,NW,20.7,27.6,N/A,,Scattered Clouds,320,2014-04-14 18:35:00
1:53 PM,28.4,8.6,43,30.11,10.0,NW,15.0,21.9,N/A,,Scattered Clouds,310,2014-04-14 18:53:00
2:14 PM,28.4,10.4,47,30.11,10.0,NNW,13.8,28.8,N/A,,Mostly Cloudy,330,2014-04-14 19:14:00
2:34 PM,26.6,10.4,51,30.11,10.0,WNW,16.1,26.5,N/A,,Scattered Clouds,300,2014-04-14 19:34:00
2:53 PM,26.6,10.4,51,30.11,10.0,NNW,15.0,19.6,N/A,,Scattered Clouds,330,2014-04-14 19:53:00
3:15 PM,28.4,10.4,47,30.10,10.0,NNW,16.1,23.0,N/A,,Mostly Cloudy,340,2014-04-14 20:15:00
3:34 PM,28.4,12.2,51,30.10,10.0,NW,20.7,27.6,N/A,,Scattered Clouds,320,2014-04-14 20:34:00
4:15 PM,26.6,12.2,55,30.10,10.0,NW,20.7,26.5,N/A,,Scattered Clouds,310,2014-04-14 21:15:00
4:35 PM,26.6,12.2,55,30.09,10.0,NNW,18.4,-,N/A,,Scattered Clouds,340,2014-04-14 21:35:00
4:53 PM,26.6,15.8,64,30.09,7.0,NNW,17.3,27.6,N/A,Snow,Light Snow,330,2014-04-14 21:53:00
5:15 PM,26.6,12.2,55,30.09,10.0,NNW,21.9,28.8,N/A,,Scattered Clouds,330,2014-04-14 22:15:00
5:35 PM,23.0,15.8,74,30.10,2.0,NW,12.7,18.4,N/A,Snow,Light Snow,320,2014-04-14 22:35:00
5:53 PM,24.8,12.2,59,30.10,10.0,NNW,15.0,23.0,N/A,,Scattered Clouds,330,2014-04-14 22:53:00
6:14 PM,24.8,8.6,50,30.10,10.0,NW,21.9,27.6,N/A,,Clear,310,2014-04-14 23:14:00
6:34 PM,23.0,8.6,54,30.11,10.0,NW,17.3,26.5,N/A,,Clear,320,2014-04-14 23:34:00
6:53 PM,23.0,8.6,54,30.11,10.0,NW,16.1,26.5,N/A,,Clear,310,2014-04-14 23:53:00
7:15 PM,23.0,8.6,54,30.11,10.0,NW,19.6,25.3,N/A,,Scattered Clouds,310,2014-04-15 00:15:00
7:35 PM,21.2,6.8,54,30.11,10.0,NW,17.3,23.0,N/A,,Clear,320,2014-04-15 00:35:00
7:53 PM,21.2,8.6,58,30.12,10.0,NW,15.0,24.2,N/A,,Clear,310,2014-04-15 00:53:00
8:15 PM,21.2,8.6,58,30.12,10.0,NW,13.8,19.6,N/A,,Clear,320,2014-04-15 01:15:00
8:35 PM,19.4,8.6,63,30.13,10.0,NW,10.4,-,N/A,,Clear,320,2014-04-15 01:35:00
8:52 PM,19.4,8.6,63,30.13,10.0,NW,11.5,17.3,N/A,,Clear,320,2014-04-15 01:52:00
9:15 PM,19.4,6.8,58,30.13,10.0,NW,16.1,20.7,N/A,,Clear,320,2014-04-15 02:15:00
9:35 PM,19.4,8.6,63,30.14,10.0,NW,11.5,20.7,N/A,,Clear,310,2014-04-15 02:35:00
9:52 PM,17.6,6.8,63,30.14,10.0,NW,15.0,18.4,N/A,,Clear,320,2014-04-15 02:52:00
10:15 PM,17.6,8.6,68,30.14,10.0,NW,11.5,18.4,N/A,,Clear,320,2014-04-15 03:15:00
10:35 PM,17.6,8.6,68,30.14,10.0,NW,12.7,16.1,N/A,,Clear,320,2014-04-15 03:35:00
10:52 PM,17.6,6.8,63,30.14,10.0,NW,13.8,18.4,N/A,,Clear,320,2014-04-15 03:52:00
11:15 PM,17.6,6.8,63,30.14,10.0,NW,10.4,16.1,N/A,,Clear,320,2014-04-15 04:15:00
11:35 PM,15.8,6.8,68,30.14,10.0,NW,10.4,-,N/A,,Clear,320,2014-04-15 04:35:00
11:53 PM,15.8,6.8,68,30.14,10.0,NW,9.2,-,N/A,,Clear,320,2014-04-15 04:53:00